Temp_Advection
nan nan nan nan nan nan nan nan nan nan nan nan nan nan nan nan nan nan nan nan nan nan nan nan nan nan nan nan nan nan nan nan nan nan nan nan nan nan nan nan nan nan
nan 0 0 0 -0 -0 -0 -0 0 0 -0 -0 -0 0 0 0 0 0 0 0 -0 -0 -0 -0 -0 -0 -0 -0 -0 -0 -0 -0 -0 -0 -0 -0 -0 -0 0 0 -0 nan
nan 0 -0 -0 -0 -0 -0 -0 -0 -0 -0 -0 0 0 0 0 0 -0 -0 -0 -0 -0 -0 -0 -0 -0 -0 -0 -0 -0 -0 -0 -0 -0 -0 0 0 0 0 -0 -0 nan
nan -0 -0 -0 -0 -0 0 -0 -0 -0 -0 -0 -0 0 0 0 -0 -0 -0 -0 -0 -0 -0 -0 -0 -0 -0 -0 0 -0 -0 -0 -0 -0 0 0 -0 0 -0 -0 -0 nan
nan -0 -0 -0 0 0 -0 -0 -0 -0 -0 -0 0 0 0 -0 -0 -0 -0 -0 -0 -0 -0 -0 -0 0 0 0 0 -0 -0 0 0 -0 -0 -0 -0 -0 -0 -0 -0 nan
nan -0 -0 0 0 0 -0 -0 -0 -0 -0 0 -0 -0 -0 -0 -0 -0 -0 -0 -0 -0 -0 0 0 0 0 0 -0 -0 -0 0 -0 -0 -0 -0 -0 -0 -0 -0 -0 nan
nan 0 0 0 0 0 -0 -0 0 -0 0 0 -0 -0 -0 -0 -0 -0 -0 0 0 0 0 0 0 0 0 0 -0 -0 -0 -0 -0 -0 -0 -0 -0 -0 -0 -0 -0 nan
nan 0 0 0 0 0 -0 -0 -0 0 0 0 -0 -0 -0 -0 -0 0 0 0 0 0 0 0 0 0 0 -0 -0 -0 -0 -0 -0 -0 -0 -0 -0 -0 -0 -0 -0 nan
nan 0 0 0 0 0 -0 -0 -0 0 0 -0 -0 0 -0 -0 0 0 0 0 0 0 0 0 0 0 0 -0 -0 -0 -0 -0 -0 -0 -0 -0 -0 -0 -0 -0 -0 nan
nan 0 0 0 0 -0 -0 0 0 0 0 -0 0 0 0 0 0 0 0 0 0 0 0 0 -0 -0 0 -0 -0 -0 -0 -0 -0 -0 -0 -0 -0 -0 -0 -0 -0 nan
nan 0 -0 -0 -0 -0 -0 0 0 0 0 -0 -0 -0 0 0 0 0 0 0 -0 -0 -0 -0 -0 -0 -0 -0 -0 -0 -0 -0 -0 -0 -0 -0 -0 0 -0 -0 -0 nan
nan 0 -0 -0 -0 -0 0 0 0 0 0 -0 -0 -0 0 0 0 0 0 -0 -0 -0 -0 -0 -0 -0 -0 -0 -0 -0 -0 -0 -0 -0 -0 -0 0 0 0 -0 -0 nan
nan 1 0 -0 0 0 0 0 0 0 0 0 0 -0 0 0 0 0 0 0 -0 -0 -0 -0 -0 -0 -0 -0 -0 -0 -0 -0 -0 -0 -0 -0 0 0 -0 -0 -0 nan
nan 1 0 -0 0 0 0 0 0 0 0 0 0 -0 -0 0 0 0 0 0 -0 -0 -0 -0 -0 -0 -0 -0 -0 -0 -0 -0 -0 0 0 0 0 0 -0 -0 -0 nan
nan 0 0 0 -0 -0 -0 -0 0 0 0 0 0 -0 -0 0 0 0 0 -0 -0 -0 -0 -0 -0 -0 -0 -0 -0 -0 0 0 0 0 -0 -0 -0 -0 -0 -0 -0 nan
nan -1 -0 0 0 0 0 -0 -0 0 0 0 -0 -0 0 0 0 0 0 -0 -0 -0 -0 -0 -0 -0 -0 -0 -0 -0 0 0 0 0 0 -0 -0 -0 -0 -0 -0 nan
nan -1 -1 0 1 0 0 0 0 0 0 0 0 0 0 0 0 0 0 0 -0 -0 -0 -0 -0 -0 -0 -0 -0 0 0 0 0 0 0 0 -0 -0 -0 -0 -0 nan
nan -1 -0 1 1 0 -0 1 1 0 0 0 0 0 0 0 0 -0 -0 -0 -0 -0 -0 -0 -0 -0 -0 -0 -0 -0 -0 -0 -0 -0 0 0 -0 -0 -0 0 0 nan
nan -0 0 1 1 0 0 0 0 1 1 0 -0 0 -0 -0 -0 -0 -0 -0 -0 -0 -0 -0 -0 -0 -0 -0 -0 -0 -0 -0 -0 -0 -0 -0 0 0 0 0 0 nan
nan 0 1 1 0 -0 0 0 -0 0 0 0 -0 -0 -1 -1 -1 -0 -0 -0 -0 -0 -1 -0 -0 -0 -0 -0 0 0 -0 -0 -0 -0 -0 -0 0 0 0 0 0 nan
nan 0 1 0 0 0 0 -0 -0 0 0 -0 -0 -0 -0 -0 0 0 -0 -0 -1 -1 -0 -0 -0 -0 -0 -0 0 0 0 0 -0 -0 -0 -0 -0 0 0 0 0 nan
nan 1 0 0 0 0 0 0 0 1 0 -0 -0 -0 -0 0 1 1 0 -0 -0 -0 -0 -0 -0 -0 -0 -0 -0 0 0 0 0 -0 -0 -0 -0 -0 0 0 0 nan
nan 0 0 0 0 0 1 0 0 0 -0 -0 0 1 1 1 0 0 0 0 0 -0 -0 -0 -0 -0 -0 -0 -0 -0 -0 0 0 -0 -0 -0 -0 -0 0 0 0 nan
nan 0 0 0 0 0 0 0 0 0 -0 0 1 1 1 0 0 0 0 0 0 0 0 -0 -0 -0 0 0 -0 -0 -0 -0 -0 -0 -0 -0 0 0 0 0 0 nan
nan 0 0 0 0 0 0 0 0 0 -0 0 1 1 0 0 0 0 0 0 0 -0 -0 -0 0 0 0 0 -0 -0 -0 0 -0 0 0 0 0 0 0 0 0 nan
nan nan nan nan nan nan nan nan nan nan nan nan nan nan nan nan nan nan nan nan nan nan nan nan nan nan nan nan nan nan nan nan nan nan nan nan nan nan nan nan nan nan
Wind_Speed
18 18 17 15 13 12 11 10 10 10 9 8 8 8 8 8 9 9 9 8 9 9 10 10 10 10 11 10 8 8 8 8 8 9 9 9 7 7 7 8 9 8
19 19 18 17 15 13 12 11 11 10 9 8 7 7 8 9 9 9 8 9 9 9 9 10 10 11 11 10 9 8 8 7 8 8 8 8 8 8 8 8 8 8
20 20 19 18 17 15 13 12 11 10 8 8 8 7 8 9 9 9 9 9 9 9 9 9 10 10 10 10 9 9 8 7 7 8 8 8 8 8 8 8 8 8
21 20 20 19 17 16 14 13 13 11 9 9 9 9 9 9 10 10 10 10 9 9 10 10 9 10 10 10 10 9 8 7 7 8 8 8 8 8 8 9 9 9
21 20 19 18 18 17 16 16 14 13 12 10 9 9 10 10 10 11 11 11 11 10 10 10 9 9 9 10 9 9 8 7 7 7 7 7 7 8 8 9 9 9
20 20 19 19 18 18 18 18 16 15 13 12 10 10 10 11 11 12 12 12 12 11 11 10 10 10 9 9 8 8 7 7 7 7 7 7 6 7 7 8 8 8
20 20 19 19 19 19 19 19 18 16 15 13 12 11 11 12 12 12 12 12 12 12 11 11 11 10 10 9 8 8 7 6 7 8 7 6 5 6 6 7 7 7
20 20 19 20 20 21 20 20 19 18 16 15 13 12 12 12 13 13 13 12 12 11 11 11 11 10 10 10 9 8 7 7 7 7 6 5 5 5 5 6 6 6
20 20 20 20 21 22 21 20 19 18 18 17 15 13 13 13 13 13 13 13 12 11 10 11 11 11 11 11 10 9 9 8 7 7 6 5 5 4 5 5 5 5
20 20 21 21 21 22 22 21 20 19 19 18 16 15 15 14 14 14 13 13 13 11 10 10 10 10 11 11 11 10 10 9 8 8 7 7 6 5 5 5 5 5
20 20 21 22 22 22 23 22 21 20 19 19 18 17 16 15 15 15 15 14 13 12 11 10 9 9 9 10 10 10 11 11 10 9 9 8 7 7 7 7 7 7
22 21 21 22 23 22 22 22 21 21 20 20 19 18 17 17 16 16 16 16 15 13 12 11 10 9 9 9 9 9 11 12 12 11 11 10 9 8 8 9 9 9
23 22 20 21 22 22 22 22 22 21 21 20 19 19 18 18 17 16 16 15 15 14 12 11 10 9 9 9 9 9 10 11 12 12 12 12 11 10 10 10 10 11
22 22 20 20 21 21 21 22 22 22 21 20 20 19 19 18 17 17 15 14 14 13 12 10 10 9 9 8 8 8 9 9 10 11 12 12 12 11 10 10 10 11
24 22 20 20 21 21 20 20 21 21 21 21 21 20 19 18 17 16 15 14 14 13 11 11 10 10 9 8 7 7 7 8 8 9 10 10 10 10 10 10 11 11
27 23 21 20 21 21 21 20 19 20 20 20 21 21 20 19 18 17 16 15 14 13 13 12 12 11 10 9 8 7 7 8 9 9 10 9 9 9 9 9 9 10
28 24 22 22 21 22 22 20 20 19 19 19 19 19 19 20 19 18 17 15 15 14 14 14 13 12 11 11 10 10 10 10 11 11 11 11 10 10 9 9 9 9
29 26 24 23 22 22 21 21 21 20 20 20 20 19 19 19 19 19 17 16 15 15 15 15 14 13 12 12 12 12 12 12 13 13 13 13 12 12 11 11 10 11
29 27 25 24 25 24 22 21 22 22 21 22 22 22 21 20 20 20 19 18 16 15 15 15 14 14 13 13 13 13 13 14 14 14 14 14 14 14 14 13 13 13
24 24 24 25 26 25 23 22 22 22 21 21 21 22 20 20 20 21 21 20 19 18 17 16 15 15 15 15 15 15 15 16 16 15 15 15 15 15 15 15 15 15
15 17 20 23 24 24 24 22 21 21 21 21 21 21 20 19 20 21 22 22 21 20 19 18 17 16 16 16 16 17 17 18 18 17 17 17 16 16 17 17 17 18
13 13 15 17 19 21 22 21 20 19 20 20 20 20 21 22 22 22 23 23 22 21 20 20 19 18 17 17 17 18 18 19 19 19 19 19 18 18 19 19 20 20
8 8 10 13 16 16 17 17 17 17 18 18 18 19 20 20 21 22 22 22 21 20 19 19 19 18 18 18 18 18 19 19 19 20 20 20 20 20 21 21 21 21
2 2 4 8 10 11 11 12 13 13 14 17 19 19 17 15 16 18 19 19 19 20 20 19 18 18 17 17 18 19 19 20 20 20 21 21 21 21 21 22 22 22
3 3 3 5 6 7 7 7 7 7 9 13 16 16 15 14 14 14 15 16 16 17 19 18 18 18 17 17 17 18 19 20 21 21 21 22 22 22 23 23 23 23
6 6 4 3 3 3 3 2 3 5 7 8 10 11 12 13 13 13 15 15 14 15 16 15 15 16 16 17 18 19 20 20 21 22 23 23 24 24 24 25 25 25
Wind_Direction
222 222 221 223 225 228 233 234 230 229 232 233 230 223 217 213 212 214 213 214 214 209 212 215 216 220 223 224 223 223 225 231 238 243 242 241 240 237 241 250 254 253
224 224 224 225 227 230 234 234 233 232 233 234 233 224 214 210 211 212 210 212 213 211 215 219 221 224 226 226 224 221 223 228 235 237 234 233 236 235 237 247 253 252
225 226 227 227 227 230 233 233 231 229 229 228 226 222 216 211 214 216 213 213 215 215 219 224 226 227 228 227 224 223 225 227 228 230 229 231 234 236 239 244 249 249
226 227 228 229 229 230 233 233 229 226 225 223 218 219 220 217 218 219 217 216 215 213 219 225 228 228 227 226 225 225 227 227 225 226 228 231 234 237 239 242 245 245
227 228 229 229 229 230 231 232 231 229 227 224 219 219 222 223 224 222 221 219 215 211 215 222 228 229 227 227 230 230 229 228 227 229 231 231 234 236 236 238 242 244
226 227 228 229 229 229 231 231 234 235 232 228 224 224 225 227 228 226 223 221 219 215 214 218 222 225 227 230 233 232 228 226 229 234 237 234 235 239 240 240 241 243
227 227 228 229 229 230 232 232 235 237 236 233 229 228 229 230 230 229 226 223 222 220 218 219 219 221 226 230 232 232 228 224 229 236 239 235 232 238 245 247 245 242
229 229 229 229 229 230 232 232 234 235 236 235 231 229 230 230 229 230 230 228 226 224 222 221 221 222 225 228 230 233 232 226 227 236 242 238 230 232 243 254 256 249
230 230 230 231 230 231 232 233 233 234 235 236 234 231 230 229 229 229 230 231 230 228 225 225 227 227 228 232 232 233 237 235 233 237 244 247 243 235 239 252 261 259
232 231 230 231 231 232 232 233 233 233 234 236 236 234 231 229 229 228 228 229 232 233 231 230 232 232 234 238 239 239 243 243 241 240 242 248 252 248 244 247 250 252
237 235 232 231 232 234 234 233 233 233 234 235 236 236 235 233 230 228 226 228 230 232 235 235 235 237 242 245 247 249 249 248 246 244 243 245 251 256 257 255 253 252
242 241 236 231 230 233 235 235 235 234 234 234 235 236 237 237 234 231 228 229 229 230 232 235 236 241 247 252 255 257 255 253 250 247 247 247 249 256 261 262 263 263
245 247 246 239 234 234 235 237 237 237 236 235 235 237 238 238 236 233 230 230 231 231 232 235 237 241 246 252 257 260 261 258 256 255 254 253 252 256 261 265 268 271
246 249 251 247 244 241 239 238 237 238 239 237 236 235 235 236 234 230 229 229 229 230 232 235 237 238 240 245 249 255 260 261 262 261 261 260 259 259 263 269 274 277
244 245 248 249 247 246 245 242 240 239 239 238 237 236 235 234 230 227 228 230 230 230 231 233 236 236 233 230 233 241 252 263 268 269 269 270 271 269 271 274 277 282
243 242 244 246 246 245 244 242 241 242 241 239 237 236 235 233 230 229 230 234 237 237 237 237 239 239 232 225 226 235 251 265 273 277 280 281 282 282 280 279 281 283
240 237 239 242 243 245 245 243 243 243 245 248 247 244 241 237 235 234 234 237 243 247 249 249 247 245 238 231 230 237 251 262 268 274 279 280 283 283 282 282 282 282
237 235 237 240 243 245 245 247 247 243 242 245 245 245 246 246 246 247 245 246 249 252 254 255 253 252 248 243 240 241 249 257 260 264 268 270 274 277 278 280 280 280
235 235 234 237 241 243 244 246 246 244 243 243 239 236 237 241 248 252 253 253 255 256 256 256 255 254 253 249 246 245 250 255 258 260 262 264 268 271 274 276 278 280
238 237 235 234 234 235 240 244 244 244 247 249 246 242 239 237 241 248 251 252 254 256 258 259 258 258 257 256 253 250 251 255 257 260 262 264 267 270 272 273 274 276
226 228 229 229 228 228 233 239 241 242 244 245 246 248 248 245 244 247 250 252 252 253 256 258 260 262 263 263 262 258 256 257 260 263 265 266 268 268 269 269 269 271
185 192 201 211 218 221 225 230 234 235 236 239 244 248 250 249 248 248 250 252 254 254 255 256 257 259 262 266 266 264 260 258 259 262 265 267 267 267 267 266 267 269
180 182 188 195 202 207 212 219 224 225 226 231 236 239 243 245 245 244 246 248 248 248 249 250 251 254 258 262 267 268 266 263 262 263 265 266 266 266 266 265 266 267
152 162 193 203 204 203 205 210 213 214 216 220 223 227 230 232 233 235 237 239 239 238 238 239 242 246 250 254 260 264 267 267 266 266 265 265 265 265 266 266 267 267
83 116 169 198 205 206 212 216 211 205 210 216 220 221 222 227 233 235 234 234 234 234 234 235 237 238 241 247 253 258 261 262 263 264 263 263 263 264 264 265 266 267
77 85 105 138 173 197 226 239 217 209 214 220 222 224 230 238 244 246 243 240 238 235 235 236 237 237 239 244 249 253 256 258 259 261 262 262 264 264 264 264 264 265
Height
1596 1598 1599 1600 1602 1603 1604 1605 1606 1607 1608 1608 1609 1610 1611 1611 1612 1612 1613 1614 1615 1616 1617 1618 1619 1620 1621 1621 1622 1623 1624 1624 1625 1626 1626 1627 1627 1628 1628 1629 1629 1630
1595 1596 1598 1599 1601 1602 1603 1604 1606 1606 1607 1608 1608 1609 1610 1611 1611 1612 1613 1614 1615 1616 1617 1617 1618 1619 1620 1621 1621 1622 1623 1624 1624 1625 1625 1626 1626 1627 1627 1628 1628 1629
1593 1595 1596 1598 1599 1601 1603 1604 1605 1606 1606 1607 1608 1609 1610 1610 1611 1611 1612 1613 1614 1615 1616 1617 1617 1618 1619 1620 1621 1621 1622 1623 1623 1624 1624 1625 1625 1626 1626 1627 1627 1628
1592 1594 1595 1597 1598 1600 1602 1603 1604 1605 1606 1606 1607 1608 1609 1610 1610 1611 1611 1612 1613 1614 1615 1616 1617 1617 1618 1619 1620 1620 1621 1622 1622 1623 1623 1624 1624 1625 1625 1626 1626 1626
1591 1592 1594 1596 1597 1599 1600 1601 1603 1604 1605 1606 1607 1607 1608 1609 1610 1610 1611 1612 1613 1614 1614 1615 1616 1617 1618 1618 1619 1620 1620 1621 1621 1622 1623 1623 1624 1624 1624 1625 1625 1625
1589 1591 1592 1594 1595 1597 1598 1600 1601 1602 1603 1605 1606 1607 1607 1608 1609 1609 1610 1611 1612 1613 1614 1614 1615 1616 1617 1618 1618 1619 1620 1620 1621 1621 1622 1622 1623 1623 1624 1624 1624 1625
1587 1589 1590 1592 1594 1595 1596 1598 1600 1601 1602 1604 1604 1605 1606 1607 1608 1608 1609 1610 1611 1612 1613 1614 1615 1615 1616 1617 1618 1619 1619 1620 1620 1621 1621 1622 1622 1623 1623 1623 1624 1624
1586 1587 1589 1591 1592 1593 1595 1596 1598 1599 1601 1602 1603 1604 1605 1605 1606 1607 1608 1609 1610 1611 1612 1613 1614 1614 1615 1616 1617 1618 1618 1619 1620 1620 1620 1621 1621 1622 1622 1622 1623 1623
1585 1586 1587 1589 1590 1592 1593 1595 1596 1598 1599 1600 1601 1602 1603 1604 1605 1606 1607 1608 1609 1610 1611 1612 1613 1613 1614 1615 1615 1616 1617 1618 1619 1619 1619 1620 1620 1621 1621 1621 1622 1622
1583 1584 1586 1587 1589 1590 1592 1593 1595 1596 1597 1599 1600 1601 1602 1603 1604 1604 1606 1606 1608 1609 1610 1611 1612 1612 1613 1613 1614 1615 1616 1617 1617 1618 1618 1618 1619 1619 1620 1620 1620 1620
1582 1583 1585 1586 1588 1589 1591 1592 1593 1595 1596 1597 1598 1599 1600 1601 1602 1603 1604 1605 1606 1607 1608 1609 1610 1611 1612 1612 1613 1614 1614 1615 1616 1616 1617 1617 1618 1618 1618 1619 1619 1619
1580 1582 1584 1585 1587 1588 1590 1591 1592 1593 1595 1596 1597 1598 1599 1600 1601 1602 1603 1604 1605 1606 1607 1608 1609 1610 1610 1611 1612 1612 1613 1614 1614 1615 1615 1616 1616 1617 1617 1618 1618 1618
1579 1581 1583 1585 1586 1588 1589 1590 1591 1593 1594 1595 1596 1597 1598 1599 1600 1601 1602 1603 1604 1604 1605 1606 1607 1608 1609 1610 1610 1611 1612 1612 1613 1614 1614 1615 1615 1616 1616 1617 1617 1617
1577 1579 1582 1584 1586 1587 1589 1590 1590 1592 1593 1594 1595 1595 1596 1597 1598 1600 1601 1602 1603 1603 1604 1605 1606 1606 1607 1608 1609 1609 1610 1611 1611 1612 1613 1614 1614 1615 1615 1615 1616 1616
1574 1577 1579 1581 1583 1585 1587 1589 1590 1591 1592 1593 1594 1595 1596 1596 1597 1599 1600 1601 1602 1602 1603 1603 1604 1605 1606 1606 1607 1608 1608 1609 1610 1611 1612 1612 1613 1613 1613 1614 1614 1614
1572 1574 1576 1578 1580 1582 1584 1586 1588 1590 1591 1592 1593 1594 1595 1596 1597 1597 1598 1599 1600 1601 1602 1602 1602 1603 1604 1605 1606 1606 1607 1608 1608 1609 1610 1610 1611 1611 1612 1612 1612 1613
1569 1570 1572 1574 1576 1579 1582 1584 1585 1587 1590 1591 1593 1594 1594 1595 1596 1596 1597 1598 1599 1600 1600 1601 1601 1602 1602 1603 1604 1604 1605 1606 1606 1607 1607 1608 1609 1609 1609 1610 1610 1611
1565 1567 1568 1570 1573 1576 1579 1581 1583 1584 1586 1588 1590 1592 1593 1594 1595 1595 1596 1597 1597 1598 1598 1599 1599 1600 1601 1601 1602 1603 1603 1603 1604 1604 1605 1605 1606 1607 1607 1608 1608 1609
1563 1564 1565 1568 1570 1573 1575 1577 1580 1582 1583 1585 1587 1588 1590 1591 1592 1593 1594 1595 1595 1596 1596 1597 1597 1598 1598 1599 1600 1600 1601 1601 1602 1602 1602 1603 1603 1604 1605 1606 1606 1607
1560 1561 1563 1565 1568 1570 1572 1574 1576 1579 1581 1584 1586 1587 1588 1589 1589 1590 1591 1592 1593 1593 1594 1594 1595 1595 1596 1596 1597 1598 1598 1599 1599 1600 1600 1601 1601 1602 1603 1603 1604 1604
1559 1560 1561 1563 1566 1568 1569 1571 1573 1576 1578 1581 1583 1584 1585 1586 1586 1587 1588 1588 1590 1590 1591 1592 1592 1593 1593 1594 1595 1595 1596 1596 1597 1597 1598 1598 1599 1600 1600 1601 1601 1602
1557 1559 1560 1562 1563 1564 1566 1567 1570 1572 1575 1578 1580 1582 1582 1582 1583 1583 1584 1585 1587 1588 1588 1589 1589 1590 1590 1591 1592 1592 1593 1593 1594 1594 1595 1596 1596 1597 1597 1598 1598 1598
1556 1557 1559 1560 1561 1562 1563 1565 1567 1569 1572 1575 1577 1578 1579 1580 1580 1580 1581 1583 1584 1584 1585 1586 1586 1586 1587 1588 1589 1589 1590 1590 1591 1592 1592 1593 1594 1594 1595 1595 1595 1595
1557 1557 1558 1559 1560 1561 1563 1564 1565 1567 1570 1572 1574 1575 1576 1578 1578 1577 1578 1580 1581 1581 1582 1582 1582 1583 1584 1585 1586 1586 1587 1588 1589 1589 1590 1590 1591 1592 1592 1592 1593 1593
1558 1558 1558 1559 1559 1560 1562 1564 1566 1567 1569 1570 1572 1573 1574 1575 1575 1576 1577 1578 1579 1579 1579 1579 1580 1581 1581 1582 1583 1584 1585 1586 1586 1587 1587 1588 1588 1589 1589 1590 1590 1590
1560 1560 1560 1559 1559 1561 1563 1565 1566 1567 1567 1568 1570 1571 1572 1573 1574 1575 1577 1578 1579 1578 1577 1576 1577 1578 1579 1580 1581 1581 1582 1583 1583 1584 1584 1585 1585 1586 1586 1586 1587 1587